Flag for Switzerland Weather past 2 weeks in Chur, Graubünden, Switzerland

Now
42 °F

Passing clouds.


Feels Like: 37 °F
Forecast: 33 / 44 °F
Wind: 9 mph from South

Location: Chur-Ems

Current Time: Mar 3, 2015 at 8:01:05 PM

Latest Report: Mar 3, 2015 at 7:00 PM


Visibility: 16 mi

Pressure: 30.24 "Hg

Humidity: 61%

Dew point: 29 °F

Location of ChurLocation

Historic Weather in Chur — Graph

°F

Chur temperature yesterday

Maximum temperature yesterday: 45 °F (at 1:00 PM)
Minimum temperature yesterday: 38 °F (at 11:00 PM)
Average temperature yesterday: 41 °F

Past Weeks' High & Low Weather Summary

 TemperatureHumidityPressure
High54 °F (Feb 20, 2:00 PM)96% (Mar 2, 7:00 AM)30.73 "Hg (Mar 2, 7:00 AM)
Low25 °F (Feb 19, 5:00 AM)19% (Feb 20, 2:00 PM)29.47 "Hg (Feb 21, 2:00 PM)
Average38 °F68%30.09 "Hg
* Reported Feb 16 6:00 PM — Mar 3 6:00 PM, Chur, Weather by CustomWeather, © 2015

Note: Actual official high and low records may vary slightly from our data, if they occured in-between our weather recording intervals... More about our weather records

Advertising

Chur weather history for previous 24 hours

 ConditionsComfort  
Time TempWeatherWind HumidityBarometerVisibility
6:00 PM
Tue, Mar 3
45 °FCool.6 mph49%30.21 "HgN/A
5:00 PM47 °FCool.8 mph42%30.19 "HgN/A
4:00 PM48 °FPartly sunny.12 mph41%30.21 "Hg16 mi
3:00 PM49 °FCool.9 mph46%30.21 "HgN/A
2:00 PM48 °FCool.9 mph43%30.23 "HgN/A
1:00 PM46 °FPartly sunny.7 mph47%30.27 "Hg16 mi
12:00 PM46 °FCool.7 mph57%30.29 "HgN/A
11:00 AM43 °FQuite cool.8 mph64%30.32 "HgN/A
10:00 AM40 °FLow clouds.6 mph74%30.32 "Hg12 mi
9:00 AM38 °FChilly.6 mph82%30.33 "HgN/A
8:00 AM35 °FChilly.3 mph90%30.33 "HgN/A
7:00 AM34 °FFog.1 mph90%30.31 "Hg8 mi
6:00 AM35 °FChilly.1 mph87%30.30 "HgN/A
5:00 AM35 °FChilly.2 mph83%30.29 "HgN/A
4:00 AM35 °FFog.1 mph90%30.28 "Hg4 mi
3:00 AM36 °FChilly.1 mph83%30.28 "HgN/A
2:00 AM37 °FChilly.3 mph78%30.27 "HgN/A
1:00 AM37 °FFog.6 mph76%30.26 "Hg2 mi
12:00 AM39 °FChilly.9 mph68%30.23 "HgN/A
11:00 PM
Mon, Mar 2
38 °FChilly.7 mph77%30.20 "HgN/A
9:00 PM38 °FChilly.3 mph88%30.13 "HgN/A
8:00 PM39 °FChilly.5 mph86%30.09 "HgN/A
Weather by CustomWeather, © 2015

See weather overviewHow to use our weather pages